Hourly Data Report for October 22, 2016

All times are specified in Local Standard Time (LST). Add 1 hour to adjust for Daylight Saving Time where and when it is observed.

CHARLOTTETOWN A
PRINCE EDWARD ISLAND

46°17'21.000" N
63°07'09.000" W
48.50 m
8300301
71706
YYG

Download Data

Hourly Data (October 2016)
Hourly Data Report for October 22, 2016
Temp Definition
°C
Dew Point Temp Definition
°C
Rel Hum Definition
%
Wind Dir Definition
10's deg

Wind Spd Definition
km/h
Visibility Definition
km
Stn Press Definition
kPa
Hmdx Definition


Wind Chill Definition


Weather Definition


TIME
00:00 Legend Double Dagger 14.0 13.5 97 13 18 0.2 100.47     Fog
01:00 Legend Double Dagger 14.4 14.1 98 12 11 3.2 100.33     Fog
02:00 Legend Double Dagger 15.7 15.4 98 13 21 4.8 100.21     Fog
03:00 Legend Double Dagger 16.4 16.1 98 15 25 9.7 100.10     Rain
04:00 Legend Double Dagger 15.8 14.9 94 13 18 12.9 100.03     Moderate Rain
05:00 Legend Double Dagger 15.8 14.9 94 10 20 9.7 99.78     Heavy Rain
06:00 Legend Double Dagger 15.8 15.2 96 9 30 3.2 99.62     Heavy Rain
07:00 Legend Double Dagger 15.6 15.0 96 11 27 3.2 99.38     Moderate Rain,Fog
08:00 Legend Double Dagger 15.9 15.3 96 12 26 4.8 99.26     Moderate Rain,Fog
09:00 Legend Double Dagger 16.7 16.1 96 13 33 9.7 99.13     Rain,Fog
10:00 Legend Double Dagger 16.7 15.9 95 14 27 9.7 99.04     Rain,Fog
11:00 Legend Double Dagger 16.9 15.9 94 14 25 6.4 98.97     Moderate Rain,Fog
12:00 Legend Double Dagger 17.2 16.4 95 15 19 24.1 98.87     Rain
13:00 Legend Double Dagger 19.1 18.1 94 15 21 24.1 98.74     LegendNANA
14:00 Legend Double Dagger 20.2 19.1 93 14 18 24.1 98.68 27   Mostly Cloudy
15:00 Legend Double Dagger 20.4 18.9 91 17 17 24.1 98.61 27   LegendNANA
16:00 Legend Double Dagger 20.3 19.2 93 14 14 24.1 98.49 27   LegendNANA
17:00 Legend Double Dagger 20.3 19.5 95 13 12 24.1 98.40 27   Cloudy
18:00 Legend Double Dagger 19.7 19.2 97 13 7 16.1 98.34     Rain
19:00 Legend Double Dagger 19.4 19.1 98 10 29 8.1 97.86     Rain,Fog
20:00 Legend Double Dagger 19.2 18.6 96 21 18 16.1 98.40     Cloudy
21:00 Legend Double Dagger 18.9 18.3 96 23 13 24.1 98.51     LegendNANA
22:00 Legend Double Dagger 18.0 17.0 94 20 15 24.1 98.55     LegendNANA
23:00 Legend Double Dagger 18.1 17.1 94 20 24 24.1 98.62     Mainly Clear

Notes on Data Quality.

Legend

  • E = Estimated
  • M = Missing
  • NA = Not Available
  • ‡ = Partner data that is not subject to review by the National Climate Archives
Date modified: